Location: Shepherdstown, WV
(39.4326°N, 77.8042°W)
Time: 19:07:03
(UTC-04:00)

X-37B - Pass Details

Date: 24 June 2021
Orbit: 383 x 392 km, 45.0° (Epoch: 01 July)

Event Time Altitude Azimuth Distance (km) Brightness Sun altitude
Rises 21:40:40 0° 241° (WSW) 2,248 4.7 -9.9°
Reaches altitude 10° 21:42:44 10° 239° (WSW) 1,396 3.6 -10.2°
Maximum altitude 21:45:52 78° 154° (SSE) 394 0.4 -10.6°
Drops below altitude 10° 21:49:01 10° 67° (ENE) 1,401 3.2 -11.1°
Sets 21:51:05 0° 66° (ENE) 2,256 4.2 -11.4°
